sat.trackr.live / text

‹ back to catalog

STARLINK-32666

NORAD 62214 · 2024-229Y

PAYLOAD ACTIVE UNKNOWN

§ Identity

Operator
Country
US
Launch date
2024-12-04
Launch site
AFETR
Launch vehicle
Mass (kg)
RCS (m²)

Purposes: comms

External: N2YO · Heavens-Above · Gunter

§ Orbital elements

Epoch: 2026-05-25T04:05:18.698784Z

Period
94.27 min
Inclination
42.9985°
Eccentricity
0.0000868
Mean motion
15.27591538 rev/d
Perigee alt
482.4 km
Apogee alt
483.6 km
Semi-major
6,861.2 km
B*
5.6624e-4
RAAN
199.1665°
Arg perigee
231.4318°
Mean anomaly
128.6456°
Rev number
8,225

§ Raw data

STARLINK-326661 62214U 24229Y   26145.17035531  .00015358  00000+0  56624-3 0  99942 62214  42.9985 199.1665 0000868 231.4318 128.6456 15.27591538 82250

JSON: /api/v1/satellites/62214 · /tle

For live sub-satellite position, see the globe view (requires WebGL).

§ Visibility from observer

Set your observer location to see the next 7 days of passes ≥ 10°. The values pass through the URL so the page stays shareable.

No JS? Fill the form by hand. The geolocation button needs JavaScript.